NORTHERN QUEENS  -  Freeze Warning Freeze Warning        SOUTHERN QUEENS  -  Freeze Warning Freeze Warning      

Active alerts

Northern Queens
  Details for Northern Queens Freeze Warning
Southern Queens
  Details for Southern Queens Freeze Warning


WXM80 ListenWXM80 Stop

You find our weather info also at:

UK Metoffice

WeatherCloud

Weather Underground

Northeastern Weather Network

AWEKAS

Citizen Weather Observer Program (CWOP)

HAMweather, WeatherForYou, PWS Weather


Weather Underground History page Text

Daily Summary for October 25, 2017 Units:  English    Metric   Both
« Previous Day
Next Day »
Daily Weekly Monthly Yearly Custom
  High: Low: Average:
Temperature: 68.1 °F 58.0 °F 62.3 °F
Dew Point: 67.5 °F 55.6 °F 59.9 °F
Humidity: 98 % 78 % 92 %
Wind Speed: 5.5 mph 0.0 mph 0.6 mph
Wind Gust: 11.5 mph - -
Wind:- - WSW
Pressure: 29.76 in 29.64 in -
Precipitation: 0.14 in    
Historical Graphs
 
 
Tabular Data for October 25, 2017
Time Temperature Dew Point Pressure Wind Wind Speed Wind Gust Humidity Rainfall Rate (Hourly)
00:01 68.1 °F 67.5 °F 29.76 in SE 0.7 mph 2.3 mph 98 % 0.08 in
00:06 68.1 °F 67.5 °F 29.75 in SSW 3.0 mph 4.0 mph 98 % 0.06 in
00:11 68.1 °F 67.5 °F 29.75 in Calm   1.2 mph 98 % 0.05 in
00:17 68.1 °F 67.5 °F 29.75 in SW 0.5 mph 2.0 mph 98 % 0.04 in
00:22 68.0 °F 67.4 °F 29.73 in SE 1.5 mph 5.8 mph 98 % 0.04 in
00:27 68.0 °F 67.4 °F 29.74 in Calm   2.3 mph 98 % 0.04 in
00:32 68.0 °F 67.4 °F 29.73 in Calm     98 % 0.05 in
00:37 68.0 °F 67.4 °F 29.74 in SW 2.0 mph 3.5 mph 98 % 0.05 in
00:42 67.9 °F 67.3 °F 29.74 in Calm     98 % 0.06 in
00:47 67.9 °F 67.3 °F 29.74 in Calm     98 % 0.06 in
00:52 67.9 °F 67.3 °F 29.73 in SSW 1.0 mph 2.3 mph 98 % 0.05 in
00:57 67.9 °F 67.3 °F 29.73 in SSW 0.2 mph 1.2 mph 98 % 0.06 in
01:02 67.9 °F 67.3 °F 29.73 in Calm     98 % 0.05 in
01:07 67.9 °F 67.3 °F 29.73 in Calm     98 % 0.05 in
01:12 67.9 °F 67.3 °F 29.73 in Calm     98 % 0.05 in
01:17 67.9 °F 67.3 °F 29.73 in Calm     98 % 0.04 in
01:22 67.9 °F 67.3 °F 29.73 in Calm     98 % 0.04 in
01:28 67.9 °F 67.3 °F 29.73 in SE 0.8 mph 3.5 mph 98 % 0.05 in
01:33 67.9 °F 67.3 °F 29.74 in SE 0.1 mph 4.6 mph 98 % 0.04 in
01:38 67.8 °F 67.2 °F 29.73 in SE 1.1 mph 3.5 mph 98 % 0.04 in
01:43 67.7 °F 67.1 °F 29.73 in SSE 0.5 mph 3.5 mph 98 % 0.03 in
01:48 67.6 °F 67.0 °F 29.74 in SSE 0.4 mph 2.3 mph 98 % 0.04 in
01:53 67.6 °F 67.0 °F 29.74 in SSW 1.0 mph 3.5 mph 98 % 0.04 in
01:58 67.5 °F 66.9 °F 29.75 in SE 1.3 mph 4.6 mph 98 % 0.03 in
02:03 67.3 °F 66.7 °F 29.75 in SE 0.8 mph 4.6 mph 98 % 0.04 in
02:08 67.1 °F 66.2 °F 29.76 in Calm   1.2 mph 97 % 0.04 in
02:13 67.0 °F 66.1 °F 29.75 in SSW 1.1 mph 4.0 mph 97 % 0.03 in
02:18 66.8 °F 65.9 °F 29.75 in South 0.8 mph 3.5 mph 97 % 0.03 in
02:23 66.8 °F 66.2 °F 29.75 in SW 1.8 mph 5.0 mph 98 % 0.04 in
02:28 66.7 °F 66.1 °F 29.75 in SSW 1.4 mph 3.5 mph 98 % 0.03 in
02:38 66.5 °F 65.9 °F 29.74 in SW 0.2 mph 3.5 mph 98 % 0.03 in
02:43 66.4 °F 65.5 °F 29.74 in Calm     97 % 0.03 in
02:48 66.4 °F 65.5 °F 29.74 in South 0.1 mph 1.0 mph 97 % 0.02 in
02:54 66.3 °F 65.4 °F 29.73 in South 0.1 mph 1.2 mph 97 % 0.03 in
02:59 66.2 °F 65.3 °F 29.73 in SSE 0.5 mph 3.5 mph 97 % 0.03 in
03:04 66.2 °F 65.3 °F 29.73 in Calm     97 % 0.02 in
03:09 66.1 °F 65.2 °F 29.72 in Calm   1.2 mph 97 % 0.02 in
03:14 66.1 °F 65.5 °F 29.73 in Calm     98 % 0.02 in
03:19 66.1 °F 65.5 °F 29.73 in Calm   1.2 mph 98 % 0.03 in
03:24 66.0 °F 65.4 °F 29.73 in Calm     98 % 0.02 in
03:29 66.0 °F 65.4 °F 29.72 in Calm     98 % 0.02 in
03:34 65.9 °F 65.3 °F 29.71 in SSE 0.1 mph 1.2 mph 98 % 0.02 in
03:39 65.9 °F 65.3 °F 29.71 in WSW 0.9 mph 3.0 mph 98 % 0.02 in
03:44 65.8 °F 65.2 °F 29.71 in Calm     98 % 0.02 in
03:49 65.8 °F 64.9 °F 29.71 in Calm     97 % 0.01 in
03:54 65.7 °F 64.8 °F 29.71 in Calm     97 % 0.02 in
03:59 65.6 °F 64.7 °F 29.70 in WSW 0.3 mph 2.3 mph 97 % 0.02 in
04:04 65.5 °F 64.6 °F 29.70 in Calm     97 % 0.02 in
04:09 65.4 °F 64.5 °F 29.70 in Calm   1.2 mph 97 % 0.02 in
04:14 65.3 °F 64.4 °F 29.69 in Calm     97 % 0.02 in
04:20 65.2 °F 64.3 °F 29.69 in Calm     97 % 0.01 in
04:25 65.2 °F 64.3 °F 29.70 in Calm     97 % 0.01 in
04:30 65.1 °F 64.2 °F 29.69 in Calm     97 % 0.01 in
04:35 65.0 °F 64.1 °F 29.70 in Calm     97 % 0.01 in
04:40 65.0 °F 64.1 °F 29.70 in Calm     97 % 0.02 in
04:45 64.9 °F 64.0 °F 29.71 in SW 0.1 mph 1.0 mph 97 % 0.02 in
04:50 64.9 °F 64.0 °F 29.71 in Calm   1.2 mph 97 % 0.02 in
04:55 64.8 °F 63.9 °F 29.71 in Calm     97 % 0.01 in
05:00 64.8 °F 63.9 °F 29.71 in Calm     97 % 0.01 in
05:05 64.7 °F 63.8 °F 29.71 in SW 0.2 mph 2.3 mph 97 % 0.01 in
05:10 64.7 °F 63.8 °F 29.71 in Calm     97 % 0.01 in
05:15 64.6 °F 63.7 °F 29.71 in SW 0.1 mph 1.0 mph 97 % 0.01 in
05:20 64.5 °F 63.6 °F 29.71 in Calm   1.2 mph 97 % 0.01 in
05:25 64.5 °F 63.6 °F 29.71 in SW 0.6 mph 3.5 mph 97 % 0.01 in
05:30 64.4 °F 63.5 °F 29.71 in WSW 0.8 mph 2.3 mph 97 % 0.01 in
05:35 64.4 °F 63.5 °F 29.72 in WSW 0.4 mph 2.3 mph 97 % 0.01 in
05:41 64.3 °F 63.4 °F 29.71 in Calm   2.0 mph 97 % 0.00 in
05:46 64.3 °F 63.4 °F 29.71 in Calm   2.0 mph 97 % 0.00 in
05:51 64.3 °F 63.4 °F 29.71 in WSW 1.0 mph 3.0 mph 97 % 0.00 in
05:56 64.2 °F 63.3 °F 29.70 in Calm   2.0 mph 97 % 0.00 in
06:01 64.3 °F 63.4 °F 29.71 in SW 2.1 mph 4.0 mph 97 % 0.00 in
06:06 64.2 °F 63.3 °F 29.71 in WSW 0.1 mph 5.8 mph 97 % 0.00 in
06:11 64.3 °F 63.7 °F 29.71 in WNW 2.9 mph 4.6 mph 98 % 0.00 in
06:16 64.3 °F 63.7 °F 29.71 in WSW 1.9 mph 3.5 mph 98 % 0.00 in
06:21 64.3 °F 63.7 °F 29.71 in Calm   1.2 mph 98 % 0.00 in
06:26 64.3 °F 63.7 °F 29.71 in West 3.2 mph 5.8 mph 98 % 0.00 in
06:31 64.3 °F 63.7 °F 29.71 in West 2.2 mph 3.5 mph 98 % 0.00 in
06:36 64.3 °F 63.7 °F 29.71 in WNW 1.8 mph 3.5 mph 98 % 0.00 in
06:41 64.2 °F 63.6 °F 29.71 in WNW 0.5 mph 3.5 mph 98 % 0.00 in
06:46 64.1 °F 63.5 °F 29.71 in Calm   1.2 mph 98 % 0.00 in
06:51 64.0 °F 63.4 °F 29.70 in Calm     98 % 0.00 in
06:56 63.9 °F 63.3 °F 29.71 in Calm     98 % 0.00 in
07:01 63.8 °F 62.9 °F 29.70 in Calm     97 % 0.00 in
07:06 63.6 °F 62.7 °F 29.70 in WSW 0.1 mph 3.5 mph 97 % 0.00 in
07:12 63.4 °F 62.5 °F 29.71 in Calm   1.2 mph 97 % 0.00 in
07:17 63.2 °F 62.3 °F 29.71 in Calm     97 % 0.00 in
07:22 63.0 °F 62.1 °F 29.72 in Calm   2.3 mph 97 % 0.00 in
07:27 62.7 °F 61.8 °F 29.72 in Calm   1.2 mph 97 % 0.00 in
07:32 62.4 °F 61.5 °F 29.71 in West 2.6 mph 3.5 mph 97 % 0.00 in
07:37 62.2 °F 61.3 °F 29.72 in WSW 2.1 mph 3.5 mph 97 % 0.00 in
07:42 62.0 °F 61.1 °F 29.72 in West 0.9 mph 3.0 mph 97 % 0.00 in
07:47 61.8 °F 60.9 °F 29.72 in WNW 2.9 mph 3.5 mph 97 % 0.00 in
07:52 61.5 °F 60.3 °F 29.72 in West 1.8 mph 3.5 mph 96 % 0.00 in
07:57 61.3 °F 60.4 °F 29.72 in West 0.1 mph 1.2 mph 97 % 0.00 in
08:03 61.2 °F 60.3 °F 29.72 in West 0.2 mph 2.3 mph 97 % 0.00 in
08:08 61.0 °F 59.9 °F 29.72 in West 0.2 mph 1.2 mph 96 % 0.00 in
08:13 60.8 °F 59.7 °F 29.72 in West 0.2 mph 2.3 mph 96 % 0.00 in
08:18 60.7 °F 59.8 °F 29.72 in Calm     97 % 0.00 in
08:23 60.5 °F 59.6 °F 29.72 in Calm     97 % 0.00 in
08:28 60.4 °F 59.3 °F 29.73 in Calm     96 % 0.00 in
08:33 60.2 °F 59.1 °F 29.73 in Calm     96 % 0.00 in
08:38 60.1 °F 59.0 °F 29.73 in Calm     96 % 0.00 in
08:43 60.0 °F 59.1 °F 29.73 in Calm     97 % 0.00 in
08:48 59.9 °F 58.8 °F 29.73 in Calm     96 % 0.00 in
08:53 59.8 °F 58.7 °F 29.73 in West 0.2 mph 1.2 mph 96 % 0.00 in
08:58 59.7 °F 58.6 °F 29.73 in Calm   1.2 mph 96 % 0.00 in
09:03 59.7 °F 58.8 °F 29.73 in Calm   1.2 mph 97 % 0.00 in
09:08 59.6 °F 58.7 °F 29.73 in Calm     97 % 0.00 in
09:13 59.6 °F 58.7 °F 29.73 in Calm     97 % 0.00 in
09:19 59.6 °F 58.7 °F 29.72 in Calm     97 % 0.00 in
09:24 59.6 °F 58.7 °F 29.72 in West 0.1 mph   97 % 0.00 in
09:29 59.7 °F 58.8 °F 29.72 in West 0.1 mph 1.2 mph 97 % 0.00 in
09:34 59.8 °F 58.9 °F 29.72 in West 0.2 mph 2.3 mph 97 % 0.00 in
09:39 59.9 °F 59.0 °F 29.72 in Calm     97 % 0.00 in
09:44 60.0 °F 59.1 °F 29.72 in Calm     97 % 0.00 in
09:49 60.1 °F 59.2 °F 29.72 in West 0.1 mph 1.2 mph 97 % 0.00 in
09:54 60.2 °F 59.3 °F 29.72 in Calm   2.3 mph 97 % 0.00 in
09:59 60.3 °F 59.4 °F 29.72 in Calm     97 % 0.00 in
10:04 60.4 °F 59.5 °F 29.71 in WSW 0.4 mph 2.3 mph 97 % 0.00 in
10:09 60.5 °F 59.6 °F 29.71 in West 0.1 mph 1.2 mph 97 % 0.00 in
10:14 60.5 °F 59.6 °F 29.71 in WSW 0.6 mph 3.5 mph 97 % 0.00 in
10:19 60.6 °F 59.7 °F 29.71 in Calm   1.2 mph 97 % 0.00 in
10:24 60.6 °F 59.7 °F 29.71 in WSW 1.0 mph 3.0 mph 97 % 0.00 in
10:29 60.6 °F 59.7 °F 29.72 in WSW 0.5 mph 2.3 mph 97 % 0.00 in
10:34 60.5 °F 59.6 °F 29.72 in WSW 0.2 mph 3.5 mph 97 % 0.00 in
10:39 60.5 °F 59.6 °F 29.72 in WSW 2.9 mph 5.8 mph 97 % 0.00 in
10:45 60.3 °F 59.4 °F 29.71 in West 0.7 mph 1.2 mph 97 % 0.00 in
10:50 60.2 °F 59.3 °F 29.72 in West 3.6 mph 4.0 mph 97 % 0.00 in
10:55 59.9 °F 58.8 °F 29.71 in West 0.5 mph 2.3 mph 96 % 0.00 in
11:05 59.8 °F 58.7 °F 29.72 in Calm   3.5 mph 96 % 0.00 in
11:06 59.8 °F 58.7 °F 29.72 in WSW 0.6 mph 2.3 mph 96 % 0.00 in
11:11 59.7 °F 58.6 °F 29.71 in West 1.2 mph 3.5 mph 96 % 0.00 in
11:16 59.7 °F 58.6 °F 29.71 in WSW 2.9 mph 5.8 mph 96 % 0.00 in
11:21 59.6 °F 58.2 °F 29.70 in NW 4.1 mph 6.9 mph 95 % 0.00 in
11:26 59.6 °F 57.9 °F 29.71 in WNW 2.1 mph 5.8 mph 94 % 0.00 in
11:31 59.5 °F 57.5 °F 29.71 in WNW 2.5 mph 5.0 mph 93 % 0.00 in
11:36 59.6 °F 57.6 °F 29.70 in West 3.4 mph 3.5 mph 93 % 0.00 in
11:41 59.7 °F 57.7 °F 29.70 in WNW 2.9 mph 4.6 mph 93 % 0.00 in
11:46 59.8 °F 57.2 °F 29.69 in WNW 0.6 mph 3.5 mph 91 % 0.00 in
11:52 60.2 °F 57.6 °F 29.69 in WNW 2.4 mph 4.0 mph 91 % 0.00 in
11:57 60.7 °F 57.4 °F 29.70 in SW 2.2 mph 4.6 mph 89 % 0.00 in
12:02 61.1 °F 57.5 °F 29.71 in WNW 2.3 mph 5.0 mph 88 % 0.00 in
12:07 61.5 °F 57.3 °F 29.70 in West 2.9 mph 5.8 mph 86 % 0.00 in
12:12 62.0 °F 57.1 °F 29.71 in SW 5.5 mph 11.5 mph 84 % 0.00 in
12:17 62.2 °F 57.0 °F 29.70 in SW 2.6 mph 5.8 mph 83 % 0.00 in
12:22 62.4 °F 57.5 °F 29.70 in WSW 0.8 mph 4.0 mph 84 % 0.00 in
12:27 62.5 °F 57.3 °F 29.70 in NW 3.1 mph 4.6 mph 83 % 0.00 in
12:37 62.5 °F 56.9 °F 29.71 in West 1.5 mph 4.6 mph 82 % 0.00 in
12:42 62.5 °F 56.6 °F 29.71 in West 1.2 mph 3.5 mph 81 % 0.00 in
12:47 62.4 °F 56.5 °F 29.72 in West 0.7 mph 3.5 mph 81 % 0.00 in
12:52 62.3 °F 56.7 °F 29.71 in West 0.5 mph 1.0 mph 82 % 0.00 in
12:57 62.3 °F 56.7 °F 29.70 in Calm   2.3 mph 82 % 0.00 in
13:02 62.2 °F 57.0 °F 29.69 in WSW 1.9 mph 3.5 mph 83 % 0.00 in
13:07 62.1 °F 56.5 °F 29.67 in NW 0.8 mph 2.3 mph 82 % 0.00 in
13:18 62.0 °F 56.8 °F 29.69 in West 2.5 mph 4.6 mph 83 % 0.00 in
13:23 62.0 °F 56.4 °F 29.68 in NW 0.2 mph 3.5 mph 82 % 0.00 in
13:28 62.1 °F 56.9 °F 29.68 in WSW 1.1 mph 3.5 mph 83 % 0.00 in
13:33 62.1 °F 56.5 °F 29.68 in West 1.3 mph 3.5 mph 82 % 0.00 in
13:38 62.2 °F 56.6 °F 29.67 in WNW 2.1 mph 3.5 mph 82 % 0.00 in
13:43 62.2 °F 56.6 °F 29.67 in WNW 2.4 mph 4.6 mph 82 % 0.00 in
13:48 62.3 °F 56.4 °F 29.67 in NW 1.5 mph 3.5 mph 81 % 0.00 in
13:53 62.4 °F 56.1 °F 29.68 in West 2.8 mph 4.6 mph 80 % 0.00 in
13:58 62.5 °F 56.2 °F 29.68 in WSW 2.7 mph 4.6 mph 80 % 0.00 in
14:03 62.5 °F 55.9 °F 29.68 in WNW 0.2 mph 2.3 mph 79 % 0.00 in
14:08 62.6 °F 56.0 °F 29.68 in WNW 2.5 mph 5.0 mph 79 % 0.00 in
14:13 62.6 °F 55.6 °F 29.68 in West 1.5 mph 3.5 mph 78 % 0.00 in
14:18 62.6 °F 55.6 °F 29.68 in WNW 1.3 mph 5.0 mph 78 % 0.00 in
14:23 62.6 °F 56.0 °F 29.68 in Calm   3.5 mph 79 % 0.00 in
14:28 62.6 °F 55.6 °F 29.68 in West 1.0 mph 3.5 mph 78 % 0.00 in
14:33 62.6 °F 56.0 °F 29.68 in West 0.3 mph 3.5 mph 79 % 0.00 in
14:38 62.6 °F 55.6 °F 29.68 in WNW 1.5 mph 3.5 mph 78 % 0.00 in
14:44 62.6 °F 56.0 °F 29.67 in Calm   3.5 mph 79 % 0.00 in
14:49 62.6 °F 56.3 °F 29.67 in WNW 1.0 mph 3.5 mph 80 % 0.00 in
14:54 62.6 °F 56.3 °F 29.67 in Calm     80 % 0.00 in
14:59 62.7 °F 56.4 °F 29.67 in WNW 0.3 mph 2.0 mph 80 % 0.00 in
15:04 62.7 °F 56.1 °F 29.67 in WNW 0.1 mph 1.2 mph 79 % 0.00 in
15:09 62.7 °F 56.4 °F 29.67 in Calm     80 % 0.00 in
15:14 62.8 °F 56.9 °F 29.67 in Calm     81 % 0.00 in
15:19 62.9 °F 56.6 °F 29.67 in WNW 0.1 mph 1.2 mph 80 % 0.00 in
15:24 62.9 °F 56.3 °F 29.68 in WNW 0.1 mph 1.2 mph 79 % 0.00 in
15:29 63.0 °F 56.7 °F 29.68 in WNW 0.1 mph 1.2 mph 80 % 0.00 in
15:34 63.1 °F 57.2 °F 29.68 in WNW 0.2 mph 2.0 mph 81 % 0.00 in
15:39 63.2 °F 57.3 °F 29.67 in Calm     81 % 0.00 in
15:44 63.2 °F 57.3 °F 29.67 in WNW 0.4 mph 1.2 mph 81 % 0.00 in
15:49 63.3 °F 57.4 °F 29.68 in Calm     81 % 0.00 in
15:54 63.3 °F 57.4 °F 29.67 in Calm     81 % 0.00 in
16:00 63.3 °F 57.7 °F 29.68 in Calm   1.2 mph 82 % 0.00 in
16:05 63.3 °F 57.7 °F 29.66 in Calm     82 % 0.00 in
16:10 63.3 °F 57.7 °F 29.66 in WNW 0.1 mph 1.2 mph 82 % 0.00 in
16:15 63.3 °F 57.7 °F 29.66 in Calm     82 % 0.00 in
16:20 63.2 °F 58.3 °F 29.67 in Calm   1.2 mph 84 % 0.00 in
16:25 63.2 °F 58.3 °F 29.67 in Calm     84 % 0.00 in
16:30 63.1 °F 58.2 °F 29.68 in Calm   1.2 mph 84 % 0.00 in
16:35 63.0 °F 58.4 °F 29.68 in Calm     85 % 0.00 in
16:40 62.9 °F 58.3 °F 29.68 in WNW 1.0 mph 2.3 mph 85 % 0.00 in
16:45 62.8 °F 58.5 °F 29.68 in WNW 0.7 mph 2.0 mph 86 % 0.00 in
16:50 62.6 °F 58.0 °F 29.68 in Calm     85 % 0.00 in
16:55 62.4 °F 57.8 °F 29.67 in Calm     85 % 0.00 in
17:00 62.2 °F 57.6 °F 29.65 in Calm     85 % 0.00 in
17:05 62.1 °F 57.9 °F 29.67 in WNW 2.0 mph 3.5 mph 86 % 0.00 in
17:10 62.0 °F 58.1 °F 29.68 in West 2.4 mph 3.5 mph 87 % 0.00 in
17:15 61.8 °F 57.9 °F 29.68 in WSW 2.0 mph 5.0 mph 87 % 0.00 in
17:20 61.6 °F 57.7 °F 29.68 in West 1.0 mph 5.0 mph 87 % 0.00 in
17:25 61.5 °F 57.6 °F 29.66 in West 1.0 mph 4.0 mph 87 % 0.00 in
17:30 61.3 °F 57.4 °F 29.67 in West 1.0 mph 5.0 mph 87 % 0.00 in
17:41 61.1 °F 57.2 °F 29.67 in Calm   3.0 mph 87 % 0.00 in
17:45 61.0 °F 57.4 °F 29.68 in West 1.0 mph 5.0 mph 88 % 0.00 in
17:51 60.8 °F 57.2 °F 29.67 in Calm   2.0 mph 88 % 0.00 in
17:55 60.7 °F 57.1 °F 29.64 in NW 0.5 mph 3.5 mph 88 % 0.00 in
18:01 60.5 °F 56.9 °F 29.66 in NW 0.4 mph 2.3 mph 88 % 0.00 in
18:06 60.4 °F 56.8 °F 29.67 in NW 0.3 mph 2.3 mph 88 % 0.00 in
18:11 60.3 °F 56.7 °F 29.67 in West 1.6 mph 3.5 mph 88 % 0.00 in
18:16 60.2 °F 56.6 °F 29.67 in West 0.5 mph 2.3 mph 88 % 0.00 in
18:21 60.1 °F 56.5 °F 29.67 in Calm     88 % 0.00 in
18:26 60.0 °F 56.4 °F 29.66 in Calm     88 % 0.00 in
18:31 59.9 °F 56.3 °F 29.67 in Calm     88 % 0.00 in
18:36 59.9 °F 56.3 °F 29.65 in Calm     88 % 0.00 in
18:41 59.9 °F 56.3 °F 29.66 in Calm   1.2 mph 88 % 0.00 in
18:46 59.8 °F 56.6 °F 29.66 in Calm   1.2 mph 89 % 0.00 in
18:51 59.7 °F 56.5 °F 29.67 in West 0.2 mph 1.0 mph 89 % 0.00 in
19:15 59.5 °F 56.6 °F 29.68 in West 0.9 mph 2.3 mph 90 % 0.00 in
19:20 59.5 °F 56.6 °F 29.68 in Calm     90 % 0.00 in
19:25 59.5 °F 56.9 °F 29.67 in West 0.9 mph 2.0 mph 91 % 0.00 in
19:30 59.4 °F 56.8 °F 29.66 in Calm     91 % 0.00 in
19:35 59.4 °F 56.8 °F 29.66 in West 0.5 mph 2.3 mph 91 % 0.00 in
19:40 59.3 °F 56.7 °F 29.64 in Calm     91 % 0.00 in
19:45 59.2 °F 56.6 °F 29.64 in West 1.7 mph 2.0 mph 91 % 0.00 in
19:50 59.2 °F 56.6 °F 29.66 in WSW 0.3 mph 3.5 mph 91 % 0.00 in
19:55 59.1 °F 56.5 °F 29.67 in Calm     91 % 0.00 in
20:01 59.1 °F 56.2 °F 29.66 in Calm     90 % 0.00 in
20:06 59.2 °F 56.6 °F 29.69 in Calm   1.2 mph 91 % 0.00 in
20:11 59.2 °F 56.6 °F 29.70 in West 0.3 mph 2.3 mph 91 % 0.00 in
20:16 59.2 °F 56.6 °F 29.67 in Calm     91 % 0.00 in
20:21 59.3 °F 56.7 °F 29.69 in Calm   1.2 mph 91 % 0.00 in
20:26 59.3 °F 56.7 °F 29.67 in Calm     91 % 0.00 in
20:31 59.3 °F 56.7 °F 29.68 in Calm     91 % 0.00 in
20:36 59.3 °F 56.7 °F 29.67 in Calm     91 % 0.00 in
20:41 59.3 °F 56.7 °F 29.67 in Calm     91 % 0.00 in
20:46 59.3 °F 56.7 °F 29.68 in Calm   1.2 mph 91 % 0.00 in
20:51 59.3 °F 56.7 °F 29.66 in West 0.1 mph   91 % 0.00 in
20:55 59.3 °F 56.7 °F 29.67 in Calm   2.0 mph 91 % 0.00 in
21:05 59.2 °F 56.6 °F 29.68 in Calm   3.0 mph 91 % 0.00 in
21:10 59.1 °F 56.5 °F 29.69 in Calm   1.0 mph 91 % 0.00 in
21:15 59.1 °F 56.5 °F 29.67 in Calm     91 % 0.00 in
21:20 59.0 °F 56.7 °F 29.67 in Calm     92 % 0.00 in
21:25 59.0 °F 56.7 °F 29.66 in Calm     92 % 0.00 in
21:34 58.9 °F 56.6 °F 29.66 in Calm   3.0 mph 92 % 0.00 in
21:39 58.8 °F 56.5 °F 29.66 in Calm     92 % 0.00 in
21:44 58.8 °F 56.5 °F 29.67 in Calm     92 % 0.00 in
21:49 58.7 °F 56.4 °F 29.68 in Calm     92 % 0.00 in
21:54 58.7 °F 56.4 °F 29.69 in Calm     92 % 0.00 in
21:59 58.6 °F 56.3 °F 29.69 in Calm     92 % 0.00 in
22:05 58.6 °F 56.3 °F 29.69 in Calm     92 % 0.00 in
22:10 58.6 °F 56.3 °F 29.68 in West 0.1 mph 1.2 mph 92 % 0.00 in
22:15 58.6 °F 56.3 °F 29.69 in Calm   1.2 mph 92 % 0.00 in
22:20 58.5 °F 56.5 °F 29.68 in West 0.1 mph 1.2 mph 93 % 0.00 in
22:25 58.5 °F 56.5 °F 29.68 in West 0.1 mph 1.2 mph 93 % 0.00 in
22:30 58.5 °F 56.5 °F 29.70 in West 0.2 mph 1.2 mph 93 % 0.00 in
22:35 58.4 °F 56.4 °F 29.69 in Calm     93 % 0.00 in
22:40 58.4 °F 56.4 °F 29.68 in West 0.2 mph 1.0 mph 93 % 0.00 in
22:45 58.3 °F 56.3 °F 29.68 in Calm     93 % 0.00 in
22:50 58.3 °F 56.3 °F 29.67 in Calm     93 % 0.00 in
22:55 58.2 °F 56.2 °F 29.68 in Calm   1.2 mph 93 % 0.00 in
23:00 58.2 °F 56.2 °F 29.68 in West 0.3 mph 2.3 mph 93 % 0.00 in
23:05 58.2 °F 56.2 °F 29.67 in West 0.4 mph 1.2 mph 93 % 0.00 in
23:10 58.1 °F 56.1 °F 29.67 in Calm   1.2 mph 93 % 0.00 in
23:15 58.1 °F 56.1 °F 29.66 in Calm     93 % 0.00 in
23:20 58.1 °F 56.1 °F 29.67 in Calm     93 % 0.00 in
23:25 58.1 °F 56.1 °F 29.65 in Calm     93 % 0.00 in
23:31 58.1 °F 56.0 °F 29.66 in Calm   1.0 mph 93 % 0.00 in
23:36 58.0 °F 56.0 °F 29.66 in Calm   1.0 mph 93 % 0.00 in
23:41 58.0 °F 56.0 °F 29.66 in West 0.9 mph 1.0 mph 93 % 0.00 in
23:46 58.0 °F 56.0 °F 29.66 in Calm   2.0 mph 93 % 0.00 in
23:51 58.0 °F 56.3 °F 29.66 in Calm   1.0 mph 94 % 0.00 in
23:56 58.1 °F 56.4 °F 29.65 in West 0.2 mph   94 % 0.00 in
Crab Meadow Weather
Compliments of Weather Underground - 2.75 mb

Script developed by  Jim McMurry - jmcmurry@mwt.net Adapted for the template by  Wim van der Kuil - Leuven-Template.eu

Weather Terms: Tornado - A violently rotating column of air, from a thunderstorm, in contact with the ground.